Regional Weather Roundup
Issued by NWS

Home | Current Version | Previous Version | Text Only | Print | Product List | Glossary Off
Versions: 1 2 3 4 5 6 7 8 9 10 11 12 13 14 15 16 17 18 19 20 21 22 23 24 25 26 27 28 29 30 31 32 33 34 35 36 37 38 39 40 41 42 43 44 45 46 47 48 49 50

000
ASUS43 KMPX 280210
RWRMN
WEATHER ROUNDUP FOR MINNESOTA
NATIONAL WEATHER SERVICE TWIN CITIES/CHANHASSEN MN
900 PM CDT TUE SEP 27 2016


NOTE: "FAIR" INDICATES FEW OR NO CLOUDS BELOW 12,000 FEET WITH NO
SIGNIFICANT WEATHER AND/OR OBSTRUCTIONS TO VISIBILITY. N/A MEANS
CURRENT SKY AND/OR WEATHER CONDITIONS ARE NOT AVAILABLE.

MNZ060>063-068>070-280300-
   Twin Cities Metro

CITY           SKY/WX    TMP DP  RH WIND       PRES   REMARKS
TWIN CITIES    MOCLDY    50  46  86 NW10      29.86R
ST PAUL        MOCLDY    49  46  90 NW9       29.87R
CRYSTAL        CLOUDY    50  45  83 NW7       29.86R
BLAINE         MOCLDY    50  50 100 NW8       29.85R
LAKEVILLE      CLOUDY    48  48 100 NW10G17   29.86R
EDEN PRAIRIE   CLOUDY    52  46  80 N12G18    29.86R
LAKEVILLE      CLOUDY    48  48 100 NW10G17   29.86R
SOUTH ST PAUL  CLOUDY    50  46  84 NW8       29.85S
LAKE ELMO      CLOUDY    48  46  93 N7        29.86R
$$
MNZ001>005-007-008-013>017-022>024-027-028-280300-
   Northwest Minnesota

CITY           SKY/WX    TMP DP  RH WIND       PRES   REMARKS
BEMIDJI        PTCLDY    43  42  96 N3        29.94R
HALLOCK        PTCLDY    48  45  87 N5        30.00R
ROSEAU         MOCLDY    50  43  76 N6        29.99R
WARROAD        CLOUDY    46  43  87 NW3       29.99R
THIEF RVR FALL   N/A     49  41  74 N9        29.99R
CROOKSTON      CLOUDY    52  45  76 NE6       29.98R
FOSSTON        MOCLDY    43  43 100 N7        29.98R
DETROIT LAKES  CLOUDY    48  43  81 N9G18     29.96R
MOORHEAD       MOCLDY    54  45  71 N13       29.96R
PARK RAPIDS    CLOUDY    48  41  76 N9        29.93R
MAHNOMEN       MOCLDY    46  44  92 N7        29.97R
$$
MNZ006-009>011-018-025>026-280300-
   North Central Minnesota

CITY           SKY/WX    TMP DP  RH WIND       PRES   REMARKS
BAUDETTE       MOCLDY    49  43  80 N7        29.96R
FLAG ISLAND    CLOUDY    52  45  76 N12       29.97R
INTL FALLS     CLOUDY    50  46  86 N9        29.93R
WASKISH        MOCLDY    46  45  93 N5        29.95R
BIG FORK       CLOUDY    48  45  87 N3        29.92R
GRAND RAPIDS   CLOUDY    48  45  89 N9        29.92R
ORR            CLOUDY    48  45  87 CALM      29.88R
COOK           CLOUDY    48  46  93 NW7       29.89R
WALKER         CLOUDY    44  42  92 NW6       29.93R
$$
MNZ012-019>021-037-280300-
   Northeast Minnesota

CITY           SKY/WX    TMP DP  RH WIND       PRES   REMARKS
DULUTH         CLOUDY    49  46  90 N10       29.83R
ELY            CLOUDY    48  46  93 N5        29.86R
HIBBING        CLOUDY    47  45  93 N13       29.88R
EVELETH        MOCLDY    50  46  86 N9        29.88R
DULUTH HARBOR  CLOUDY    54  48  82 N8G16     29.84R
TWO HARBORS    MOCLDY    54  46  76 N8        29.80R
SILVER BAY     CLOUDY    52  46  82 N7        29.79R
GRAND MARAIS     N/A     54  49  83 N10G21    29.76R
G MARAIS ARPRT CLOUDY    48  45  87 N10       29.79R
$$
MNZ029>031-032-039>041-046>048-054>057-064-280300-
   West Central Minnesota

CITY           SKY/WX    TMP DP  RH WIND       PRES   REMARKS
FERGUS FALLS   CLOUDY    52  43  71 N9G17     29.96R
MORRIS         CLOUDY    54  43  66 N12G17    29.91R
ALEXANDRIA     CLOUDY    51  44  77 N17G24    29.93R
ELBOW LAKE     CLOUDY    51  44  75 NE12G18   29.93R
WADENA         MOCLDY    46  43  87 N10G16    29.93R
GLENWOOD       PTCLDY    50  45  81 N12       29.92R
ORTONVILLE     CLOUDY    55  43  62 N14       29.92R
MADISON        CLOUDY    59  43  55 N9        29.91R
WILLMAR        CLOUDY    54  45  71 N10G17    29.91R
$$
MNZ033>034-036-042>043-049>051-058-059-280300-
   Central Minnesota

CITY           SKY/WX    TMP DP  RH WIND       PRES   REMARKS
ST CLOUD       CLOUDY    48  46  93 N8        29.89R
SAUK CENTRE    CLOUDY    49  44  80 N8G16     29.92R
PAYNESVILLE    CLOUDY    49  44  82 N8        29.91R
AITKIN         CLOUDY    48  43  81 NW6       29.89R
PINE RIVER     MOCLDY    46  45  93 NW6       29.95R
BRAINERD       PTCLDY    47  44  90 N10       29.91R
STAPLES        CLEAR     45  43  93 N7        29.93R
LONG PRAIRIE   CLOUDY    46  45  93 NW7       29.92R
LITTLE FALLS   MOCLDY    45  43  93 NW6       29.91R
LITCHFIELD     PTCLDY    52  46  82 N10       29.90R
BUFFALO        MOCLDY    49  45  84 NW8       29.89R
MAPLE LAKE     PTCLDY    49  47  90 NW8G16    29.90R
HUTCHINSON     CLOUDY    51  46  82 N15       29.90R
$$
MNZ037-044-045-052-053-280300-
   East Central Minnesota

CITY           SKY/WX    TMP DP  RH WIND       PRES   REMARKS
PRINCETON      CLOUDY    48  46  93 NW7       29.88R
MORA           CLOUDY    45  41  87 N8        29.89R
CAMBRIDGE      CLOUDY    52  43  71 N7        29.85R
MOOSE LAKE     CLOUDY    46  43  87 NW3       29.84R
HINCKLEY       CLOUDY    46  45  93 NW7       29.86R
CLOQUET        CLOUDY    48  45  87 NW12G17   29.84R
MCGREGOR       CLOUDY    46  45  93 NW10      29.88R
$$
MNZ071>073-080-081-089-090-097-098-280300-
   Southwest Minnesota

CITY           SKY/WX    TMP DP  RH WIND       PRES   REMARKS
MONTEVIDEO     CLOUDY    55  45  67 E6        29.92R
GRANITE FALLS  CLOUDY    57  46  64 NE9       29.91R
CANBY          PTCLDY    53  35  50 NW6       29.92R
MARSHALL       CLOUDY    59  38  45 NE12      29.89R
REDWOOD FALLS  CLOUDY    55  43  63 NE8       29.89R
OLIVIA         CLOUDY    54  45  71 N12       29.89R
PIPESTONE      CLEAR     55  32  41 N5        29.90R
WINDOM         CLOUDY    57  37  47 N10       29.88R
WORTHINGTON    CLOUDY    54  36  50 NW9       29.88R
JACKSON        CLOUDY    61  30  31 VRB12G17  29.87R
TRACY          CLOUDY    59  40  48 N10       29.89R
$$
MNZ065>067-074>077-082>085-091>093-280300-
   South Central Minnesota

CITY           SKY/WX    TMP DP  RH WIND       PRES   REMARKS
MANKATO        CLOUDY    51  44  77 N8        29.88R
NEW ULM        CLOUDY    54  43  66 NE9       29.88R
ST JAMES       CLOUDY    55  43  62 N13       29.88R
FAIRMONT       CLOUDY    59  37  44 N9        29.86R
GLENCOE        CLOUDY    51  47  88 NW9       29.87R
FARIBAULT      CLOUDY    50  46  87 NW7       29.87R
OWATONNA       CLOUDY    50  45  81 NW8       29.86S
WASECA         CLOUDY    52  45  76 N9G16     29.88R
ALBERT LEA     CLOUDY    54  45  71 N14       29.85R
$$
MNZ078>079-086>088-094>096-280300-
   Southeast Minnesota

CITY           SKY/WX    TMP DP  RH WIND       PRES   REMARKS
ROCHESTER      CLOUDY    49  47  93 N8        29.84S
RED WING       CLOUDY    48  46  93 NW7       29.83S
DODGE CENTER   CLOUDY    48  45  87 N8        29.85S
WINONA         LGT RAIN  50  46  87 NW6       29.82S
AUSTIN         CLOUDY    50  45  81 N8        29.85R
PRESTON        LGT RAIN  47  44  88 N8G16     29.84S
$$
ABBREVIATIONS USED IN REMARKS
   TC - TEMPERATURES IN CELSIUS
  WCI - WIND CHILL INDEX
   HX - HEAT INDEX
  VSB - VISIBILITY
$$



USA.gov is the U.S. government's official web portal to all federal, state and local government web resources and services.